Location: Beetenbrück
(52.8113°N, 9.5946°E)
Time: 22:01:48
(UTC+00:00)

SeaSat 1 - Pass Details

Date: 14 April 2026
Orbit: 736 x 740 km, 108.0° (Epoch: 12 May)

Event Time Altitude Azimuth Distance (km) Brightness Sun altitude
Exits shadow 23:02:16 21° 267° (W) 1,643 4.2 -27.4°
Drops below altitude 10° 23:05:13 10° 304° (WNW) 2,257 5.4 -27.4°
Sets 23:08:01 0° 320° (NW) 3,186 6.5 -27.4°
